Time,TemperatureF,DewpointF,PressureIn,WindDirection,WindDirectionDegrees,WindSpeedMPH,WindSpeedGustMPH,Humidity,HourlyPrecipIn,Conditions,Clouds,dailyrainin,SoftwareType,DateUTC
2013-05-22 00:03:00,70.0,68.0,29.86,North,0,0.0,1.0,92,0.00,,,0.00,,2013-05-22 04:03:00,
2013-05-22 00:13:00,70.0,68.0,29.86,North,0,0.0,1.0,92,0.00,,,0.00,,2013-05-22 04:13:00,
2013-05-22 00:23:00,70.0,68.0,29.85,North,0,0.0,3.0,93,0.00,,,0.00,,2013-05-22 04:23:00,
2013-05-22 00:33:00,70.0,68.0,29.85,North,0,0.0,4.0,94,0.00,,,0.00,,2013-05-22 04:33:00,
2013-05-22 00:43:00,69.0,67.0,29.85,North,0,0.0,1.0,94,0.00,,,0.00,,2013-05-22 04:43:00,
2013-05-22 00:53:00,69.0,67.0,29.85,North,0,0.0,1.0,94,0.00,,,0.00,,2013-05-22 04:53:00,
2013-05-22 01:02:00,69.0,67.0,29.85,North,0,0.0,3.0,94,0.00,,,0.00,,2013-05-22 05:02:00,
2013-05-22 01:12:00,69.0,67.0,29.85,North,0,0.0,1.0,94,0.00,,,0.00,,2013-05-22 05:12:00,
2013-05-22 01:21:00,69.0,67.0,29.85,North,0,0.0,1.0,94,0.00,,,0.00,,2013-05-22 05:21:00,
2013-05-22 01:32:00,69.0,68.0,29.85,North,0,0.0,0.0,95,0.00,,,0.00,,2013-05-22 05:32:00,
2013-05-22 01:42:00,69.0,68.0,29.85,North,0,0.0,0.0,95,0.00,,,0.00,,2013-05-22 05:42:00,
2013-05-22 01:51:00,69.0,68.0,29.85,North,0,0.0,0.0,95,0.00,,,0.00,,2013-05-22 05:51:00,
2013-05-22 02:01:00,69.0,68.0,29.85,North,0,0.0,0.0,95,0.00,,,0.00,,2013-05-22 06:01:00,
2013-05-22 02:12:00,68.0,67.0,29.85,North,0,0.0,0.0,95,0.00,,,0.00,,2013-05-22 06:12:00,
2013-05-22 02:21:00,68.0,67.0,29.85,North,0,0.0,0.0,95,0.00,,,0.00,,2013-05-22 06:21:00,
2013-05-22 02:32:00,68.0,67.0,29.85,North,0,0.0,0.0,95,0.00,,,0.00,,2013-05-22 06:32:00,
2013-05-22 02:42:00,68.0,67.0,29.84,North,0,0.0,0.0,95,0.00,,,0.00,,2013-05-22 06:42:00,
2013-05-22 02:52:00,68.0,67.0,29.84,North,0,0.0,0.0,95,0.00,,,0.00,,2013-05-22 06:52:00,
2013-05-22 03:01:00,67.0,66.0,29.84,North,0,0.0,0.0,95,0.00,,,0.00,,2013-05-22 07:01:00,
2013-05-22 03:11:00,67.0,66.0,29.84,North,0,0.0,0.0,95,0.00,,,0.00,,2013-05-22 07:11:00,
2013-05-22 03:21:00,67.0,66.0,29.83,North,0,0.0,0.0,95,0.00,,,0.00,,2013-05-22 07:21:00,
2013-05-22 03:32:00,67.0,66.0,29.83,North,0,0.0,0.0,95,0.00,,,0.00,,2013-05-22 07:32:00,
2013-05-22 03:42:00,67.0,66.0,29.83,North,0,0.0,0.0,95,0.00,,,0.00,,2013-05-22 07:42:00,
2013-05-22 03:52:00,67.0,66.0,29.83,North,0,0.0,0.0,95,0.00,,,0.00,,2013-05-22 07:52:00,
2013-05-22 04:02:00,67.0,66.0,29.83,North,0,0.0,0.0,95,0.00,,,0.00,,2013-05-22 08:02:00,
2013-05-22 04:11:00,67.0,66.0,29.83,North,0,0.0,0.0,95,0.00,,,0.00,,2013-05-22 08:11:00,
2013-05-22 04:22:00,67.0,66.0,29.83,North,0,0.0,0.0,95,0.00,,,0.00,,2013-05-22 08:22:00,
2013-05-22 04:32:00,67.0,66.0,29.83,North,0,0.0,0.0,96,0.00,,,0.00,,2013-05-22 08:32:00,
2013-05-22 04:42:00,67.0,66.0,29.83,North,0,0.0,0.0,96,0.00,,,0.00,,2013-05-22 08:42:00,
2013-05-22 04:52:00,67.0,66.0,29.83,North,0,0.0,0.0,96,0.00,,,0.00,,2013-05-22 08:52:00,
2013-05-22 05:01:00,67.0,66.0,29.84,North,0,0.0,0.0,96,0.00,,,0.00,,2013-05-22 09:01:00,
2013-05-22 05:12:00,67.0,66.0,29.84,North,0,0.0,0.0,96,0.00,,,0.00,,2013-05-22 09:12:00,
2013-05-22 05:22:00,67.0,66.0,29.84,North,0,0.0,0.0,97,0.00,,,0.00,,2013-05-22 09:22:00,
2013-05-22 05:33:00,67.0,66.0,29.84,North,0,0.0,0.0,97,0.00,,,0.00,,2013-05-22 09:33:00,
2013-05-22 05:42:00,67.0,66.0,29.84,North,0,0.0,0.0,97,0.00,,,0.00,,2013-05-22 09:42:00,
2013-05-22 05:53:00,68.0,67.0,29.84,North,0,0.0,2.0,97,0.00,,,0.00,,2013-05-22 09:53:00,
2013-05-22 06:03:00,68.0,67.0,29.84,North,0,0.0,0.0,98,0.00,,,0.00,,2013-05-22 10:03:00,
2013-05-22 06:12:00,68.0,67.0,29.85,North,0,0.0,1.0,98,0.00,,,0.00,,2013-05-22 10:12:00,
2013-05-22 06:23:00,68.0,67.0,29.85,North,0,0.0,1.0,98,0.00,,,0.00,,2013-05-22 10:23:00,
2013-05-22 06:33:00,68.0,67.0,29.85,North,0,0.0,3.0,98,0.00,,,0.00,,2013-05-22 10:33:00,
2013-05-22 06:42:00,68.0,67.0,29.85,North,0,0.0,1.0,98,0.00,,,0.00,,2013-05-22 10:42:00,
2013-05-22 06:52:00,68.0,67.0,29.85,North,0,0.0,1.0,98,0.00,,,0.00,,2013-05-22 10:52:00,
2013-05-22 07:02:00,69.0,68.0,29.86,North,0,0.0,1.0,98,0.00,,,0.00,,2013-05-22 11:02:00,
2013-05-22 07:11:00,69.0,68.0,29.86,North,0,0.0,1.0,98,0.00,,,0.00,,2013-05-22 11:11:00,
2013-05-22 07:22:00,69.0,68.0,29.86,North,0,0.0,2.0,98,0.00,,,0.00,,2013-05-22 11:22:00,
2013-05-22 07:32:00,69.0,68.0,29.86,North,0,0.0,5.0,98,0.00,,,0.00,,2013-05-22 11:32:00,
2013-05-22 07:42:00,69.0,69.0,29.86,North,0,0.0,3.0,99,0.00,,,0.00,,2013-05-22 11:42:00,
2013-05-22 07:52:00,69.0,69.0,29.86,North,0,0.0,3.0,99,0.00,,,0.00,,2013-05-22 11:52:00,
2013-05-22 08:02:00,69.0,69.0,29.86,North,0,0.0,1.0,99,0.00,,,0.00,,2013-05-22 12:02:00,
2013-05-22 08:12:00,69.0,69.0,29.86,North,0,0.0,1.0,99,0.00,,,0.00,,2013-05-22 12:12:00,
2013-05-22 08:22:00,70.0,70.0,29.87,North,0,0.0,4.0,99,0.00,,,0.00,,2013-05-22 12:22:00,
2013-05-22 08:32:00,70.0,70.0,29.87,North,0,0.0,2.0,99,0.00,,,0.00,,2013-05-22 12:32:00,
2013-05-22 08:42:00,70.0,70.0,29.87,North,0,0.0,3.0,99,0.00,,,0.00,,2013-05-22 12:42:00,
2013-05-22 08:52:00,70.0,70.0,29.87,North,0,0.0,3.0,99,0.00,,,0.00,,2013-05-22 12:52:00,
2013-05-22 09:01:00,71.0,71.0,29.88,North,0,0.0,7.0,99,0.00,,,0.00,,2013-05-22 13:01:00,
2013-05-22 09:12:00,71.0,71.0,29.88,North,0,0.0,7.0,99,0.00,,,0.00,,2013-05-22 13:12:00,
2013-05-22 09:22:00,70.0,70.0,29.90,North,0,0.0,5.0,99,0.00,,,0.00,,2013-05-22 13:22:00,
2013-05-22 09:32:00,71.0,71.0,29.90,North,0,0.0,3.0,99,0.00,,,0.00,,2013-05-22 13:32:00,
2013-05-22 09:42:00,71.0,71.0,29.89,North,0,0.0,5.0,99,0.00,,,0.00,,2013-05-22 13:42:00,
2013-05-22 09:52:00,71.0,71.0,29.89,North,0,0.0,5.0,99,0.00,,,0.00,,2013-05-22 13:52:00,
2013-05-22 10:02:00,72.0,71.0,29.89,North,0,0.0,3.0,97,0.00,,,0.00,,2013-05-22 14:02:00,
2013-05-22 10:11:00,73.0,71.0,29.89,North,0,0.0,3.0,95,0.00,,,0.00,,2013-05-22 14:11:00,
2013-05-22 10:21:00,73.0,71.0,29.89,North,0,0.0,3.0,95,0.00,,,0.00,,2013-05-22 14:21:00,
2013-05-22 10:32:00,74.0,72.0,29.88,North,0,0.0,6.0,94,0.00,,,0.00,,2013-05-22 14:32:00,
2013-05-22 10:42:00,76.0,74.0,29.88,North,0,0.0,2.0,92,0.00,,,0.00,,2013-05-22 14:42:00,
2013-05-22 10:53:00,76.0,74.0,29.88,North,0,0.0,2.0,92,0.00,,,0.00,,2013-05-22 14:53:00,
2013-05-22 11:01:00,78.0,74.0,29.89,North,0,0.0,3.0,88,0.00,,,0.00,,2013-05-22 15:01:00,
2013-05-22 11:11:00,78.0,74.0,29.89,North,0,0.0,3.0,88,0.00,,,0.00,,2013-05-22 15:11:00,
2013-05-22 11:22:00,78.0,73.0,29.89,West,278,1.0,4.0,86,0.00,,,0.00,,2013-05-22 15:22:00,
2013-05-22 11:32:00,79.0,74.0,29.88,North,0,0.0,3.0,84,0.00,,,0.00,,2013-05-22 15:32:00,
2013-05-22 11:42:00,79.0,74.0,29.88,North,0,0.0,3.0,84,0.00,,,0.00,,2013-05-22 15:42:00,
2013-05-22 11:53:00,80.0,74.0,29.88,North,0,0.0,4.0,82,0.00,,,0.00,,2013-05-22 15:53:00,
2013-05-22 12:03:00,81.0,75.0,29.88,North,0,0.0,4.0,82,0.00,,,0.00,,2013-05-22 16:03:00,
2013-05-22 12:12:00,81.0,75.0,29.88,North,0,0.0,4.0,82,0.00,,,0.00,,2013-05-22 16:12:00,
2013-05-22 12:23:00,82.0,74.0,29.88,North,0,0.0,5.0,78,0.00,,,0.00,,2013-05-22 16:23:00,
2013-05-22 12:32:00,82.0,73.0,29.87,West,273,1.0,6.0,75,0.00,,,0.00,,2013-05-22 16:32:00,
2013-05-22 12:42:00,83.0,75.0,29.87,North,0,0.0,10.0,77,0.00,,,0.00,,2013-05-22 16:42:00,
2013-05-22 12:52:00,83.0,75.0,29.87,North,0,0.0,10.0,77,0.00,,,0.00,,2013-05-22 16:52:00,
2013-05-22 13:02:00,83.0,74.0,29.87,North,0,0.0,5.0,74,0.00,,,0.00,,2013-05-22 17:02:00,
2013-05-22 13:11:00,84.0,74.0,29.86,North,0,0.0,3.0,72,0.00,,,0.00,,2013-05-22 17:11:00,
2013-05-22 13:23:00,84.0,74.0,29.86,North,0,0.0,3.0,72,0.00,,,0.00,,2013-05-22 17:23:00,
2013-05-22 13:33:00,84.0,74.0,29.86,North,0,0.0,5.0,72,0.00,,,0.00,,2013-05-22 17:33:00,
2013-05-22 13:42:00,84.0,74.0,29.86,North,0,0.0,5.0,72,0.00,,,0.00,,2013-05-22 17:42:00,
2013-05-22 13:54:00,84.0,74.0,29.86,North,0,0.0,4.0,71,0.00,,,0.00,,2013-05-22 17:54:00,
2013-05-22 14:02:00,84.0,74.0,29.85,North,0,0.0,3.0,72,0.00,,,0.00,,2013-05-22 18:02:00,
2013-05-22 14:14:00,85.0,75.0,29.85,North,0,0.0,2.0,72,0.00,,,0.00,,2013-05-22 18:14:00,
2013-05-22 14:22:00,85.0,75.0,29.85,North,0,0.0,2.0,72,0.00,,,0.00,,2013-05-22 18:22:00,
2013-05-22 14:33:00,86.0,76.0,29.84,West,281,1.0,5.0,72,0.00,,,0.00,,2013-05-22 18:33:00,
2013-05-22 14:42:00,86.0,76.0,29.84,West,281,1.0,5.0,72,0.00,,,0.00,,2013-05-22 18:42:00,
2013-05-22 14:52:00,85.0,75.0,29.84,WNW,293,1.0,9.0,72,0.00,,,0.00,,2013-05-22 18:52:00,
2013-05-22 15:02:00,85.0,76.0,29.83,NW,323,1.0,9.0,75,0.00,,,0.00,,2013-05-22 19:02:00,
2013-05-22 15:11:00,85.0,77.0,29.83,North,0,0.0,9.0,77,0.00,,,0.00,,2013-05-22 19:11:00,
2013-05-22 15:21:00,85.0,77.0,29.83,North,0,0.0,9.0,77,0.00,,,0.00,,2013-05-22 19:21:00,
2013-05-22 15:32:00,84.0,75.0,29.83,North,0,0.0,3.0,75,0.00,,,0.00,,2013-05-22 19:32:00,
2013-05-22 15:42:00,85.0,76.0,29.83,WNW,286,1.0,6.0,75,0.00,,,0.00,,2013-05-22 19:42:00,
2013-05-22 15:52:00,85.0,76.0,29.83,WNW,286,1.0,6.0,75,0.00,,,0.00,,2013-05-22 19:52:00,
2013-05-22 16:02:00,83.0,75.0,29.83,North,0,0.0,4.0,76,0.00,,,0.00,,2013-05-22 20:02:00,
2013-05-22 16:11:00,85.0,75.0,29.83,North,0,0.0,4.0,73,0.00,,,0.00,,2013-05-22 20:11:00,
2013-05-22 16:22:00,85.0,75.0,29.83,North,0,0.0,4.0,73,0.00,,,0.00,,2013-05-22 20:22:00,
2013-05-22 16:32:00,85.0,74.0,29.82,WNW,300,1.0,8.0,69,0.00,,,0.00,,2013-05-22 20:32:00,
2013-05-22 16:42:00,85.0,74.0,29.82,North,0,0.0,5.0,69,0.00,,,0.00,,2013-05-22 20:42:00,
2013-05-22 16:52:00,85.0,74.0,29.82,North,0,0.0,5.0,69,0.00,,,0.00,,2013-05-22 20:52:00,
2013-05-22 17:01:00,85.0,73.0,29.82,WNW,282,1.0,8.0,67,0.00,,,0.00,,2013-05-22 21:01:00,
2013-05-22 17:11:00,84.0,71.0,29.80,North,0,0.0,9.0,66,0.00,,,0.00,,2013-05-22 21:11:00,
2013-05-22 17:21:00,84.0,71.0,29.80,North,0,0.0,9.0,66,0.00,,,0.00,,2013-05-22 21:21:00,
2013-05-22 17:32:00,84.0,70.0,29.80,North,0,0.0,9.0,64,0.00,,,0.00,,2013-05-22 21:32:00,
2013-05-22 17:42:00,84.0,70.0,29.80,North,0,0.0,9.0,64,0.00,,,0.00,,2013-05-22 21:42:00,
2013-05-22 17:53:00,84.0,70.0,29.80,North,0,0.0,5.0,64,0.00,,,0.00,,2013-05-22 21:53:00,
2013-05-22 18:03:00,84.0,72.0,29.80,North,0,0.0,6.0,67,0.00,,,0.00,,2013-05-22 22:03:00,
2013-05-22 18:13:00,82.0,72.0,29.80,North,0,0.0,11.0,72,0.00,,,0.00,,2013-05-22 22:13:00,
2013-05-22 18:22:00,82.0,72.0,29.80,North,0,0.0,11.0,72,0.00,,,0.00,,2013-05-22 22:22:00,
2013-05-22 18:33:00,81.0,73.0,29.81,North,0,0.0,11.0,76,0.00,,,0.00,,2013-05-22 22:33:00,
2013-05-22 18:42:00,81.0,73.0,29.81,West,281,1.0,8.0,77,0.00,,,0.00,,2013-05-22 22:42:00,
2013-05-22 18:52:00,81.0,73.0,29.81,West,281,1.0,8.0,77,0.00,,,0.00,,2013-05-22 22:52:00,
2013-05-22 19:02:00,81.0,74.0,29.81,WNW,293,1.0,10.0,80,0.00,,,0.00,,2013-05-22 23:02:00,
2013-05-22 19:12:00,81.0,75.0,29.81,North,0,0.0,7.0,81,0.00,,,0.00,,2013-05-22 23:12:00,
2013-05-22 19:21:00,81.0,75.0,29.81,North,0,0.0,7.0,81,0.00,,,0.00,,2013-05-22 23:21:00,
2013-05-22 19:32:00,80.0,73.0,29.81,WNW,283,1.0,10.0,80,0.00,,,0.00,,2013-05-22 23:32:00,
2013-05-22 19:42:00,80.0,74.0,29.81,North,0,0.0,7.0,81,0.00,,,0.00,,2013-05-22 23:42:00,
2013-05-22 19:53:00,80.0,74.0,29.81,North,0,0.0,7.0,81,0.00,,,0.00,,2013-05-22 23:53:00,
2013-05-22 20:01:00,79.0,73.0,29.81,North,0,0.0,7.0,82,0.00,,,0.00,,2013-05-23 00:01:00,
2013-05-22 20:11:00,78.0,73.0,29.82,North,0,0.0,6.0,84,0.00,,,0.00,,2013-05-23 00:11:00,
2013-05-22 20:22:00,78.0,73.0,29.82,North,0,0.0,6.0,84,0.00,,,0.00,,2013-05-23 00:22:00,
2013-05-22 20:32:00,77.0,72.0,29.83,North,0,0.0,6.0,84,0.00,,,0.00,,2013-05-23 00:32:00,
2013-05-22 20:42:00,77.0,72.0,29.83,North,0,0.0,6.0,84,0.00,,,0.00,,2013-05-23 00:42:00,
2013-05-22 20:52:00,77.0,72.0,29.84,North,0,0.0,6.0,85,0.00,,,0.00,,2013-05-23 00:52:00,
2013-05-22 21:01:00,77.0,72.0,29.84,North,0,0.0,3.0,86,0.00,,,0.00,,2013-05-23 01:01:00,
2013-05-22 21:11:00,76.0,72.0,29.84,North,0,0.0,3.0,86,0.00,,,0.00,,2013-05-23 01:11:00,
2013-05-22 21:22:00,76.0,72.0,29.84,North,0,0.0,3.0,86,0.00,,,0.00,,2013-05-23 01:22:00,
2013-05-22 21:32:00,76.0,72.0,29.85,North,0,0.0,2.0,87,0.00,,,0.00,,2013-05-23 01:32:00,
2013-05-22 21:42:00,75.0,71.0,29.86,North,0,0.0,4.0,88,0.00,,,0.00,,2013-05-23 01:42:00,
2013-05-22 21:52:00,75.0,71.0,29.86,North,0,0.0,4.0,88,0.00,,,0.00,,2013-05-23 01:52:00,
2013-05-22 22:11:00,75.0,72.0,29.86,North,0,0.0,4.0,89,0.00,,,0.00,,2013-05-23 02:11:00,
2013-05-22 22:21:00,75.0,72.0,29.86,North,0,0.0,4.0,89,0.00,,,0.00,,2013-05-23 02:21:00,
2013-05-22 22:32:00,74.0,71.0,29.86,North,0,0.0,5.0,90,0.00,,,0.00,,2013-05-23 02:32:00,
2013-05-22 22:42:00,74.0,71.0,29.86,North,0,0.0,5.0,90,0.00,,,0.00,,2013-05-23 02:42:00,
2013-05-22 22:52:00,74.0,71.0,29.86,North,0,0.0,5.0,90,0.00,,,0.00,,2013-05-23 02:52:00,
2013-05-22 23:02:00,74.0,71.0,29.88,North,0,0.0,6.0,91,0.00,,,0.00,,2013-05-23 03:02:00,
2013-05-22 23:11:00,74.0,71.0,29.88,North,0,0.0,6.0,91,0.00,,,0.00,,2013-05-23 03:11:00,
2013-05-22 23:21:00,74.0,71.0,29.88,North,0,0.0,0.0,91,0.00,,,0.00,,2013-05-23 03:21:00,
2013-05-22 23:33:00,74.0,71.0,29.87,North,0,0.0,0.0,91,0.00,,,0.00,,2013-05-23 03:33:00,
2013-05-22 23:43:00,74.0,71.0,29.87,North,0,0.0,0.0,91,0.00,,,0.00,,2013-05-23 03:43:00,
2013-05-22 23:53:00,73.0,70.0,29.86,North,0,0.0,0.0,90,0.00,,,0.00,,2013-05-23 03:53:00,